IO-86
1 40931U 15052B 16308.63567328 .00000859 00000-0 30724-4 0 9990
2 40931 6.0026 40.8928 0013589 294.6924 65.1924 14.76496085 59579
GomX-3
1 40949U 98067HA 16292.18357804 .08527750 12374-4 77882-3 0 9992
2 40949 51.6055 106.7696 0006699 286.1344 73.8944 16.38002265 59645
LQSat
1 40958U 15057A 16309.39247032 .00000158 00000-0 32369-4 0 9994
2 40958 98.0035 22.3552 0019501 66.8697 293.4564 14.72918665 58027
AO-85
1 40967U 15058D 16309.12045436 .00000453 00000-0 69447-4 0 03045
2 40967 064.7777 181.4901 0186785 159.6334 201.2326 14.75216671043919
ATHENOXAT-1
1 41168U 15077C 16309.38399115 .00003572 00000-0 16996-3 0 9999
2 41168 14.9930 10.6133 0012076 139.5485 308.2632 15.10694781 48988
ChubuSat-2
1 41338U 16012B 16309.51256811 .00000635 00000-0 43559-4 0 9991
2 41338 31.0026 98.9857 0014072 355.2253 4.8246 14.99556956 39238
ChubuSat-3
1 41339U 16012C 16309.47254030 .00000655 00000-0 44903-4 0 9994
2 41339 31.0108 98.7569 0013969 359.8936 0.1711 14.99776204 39203
Horyu-4
1 41340U 16012D 16308.80245258 .00000963 00000-0 68214-4 0 9997
2 41340 31.0045 101.8819 0014405 0.4432 359.6215 15.00293445 39132
OUFTI-1
1 41458U 16025C 16309.49764466 .00002977 00000-0 16636-3 0 9991
2 41458 98.2108 328.0744 0177014 320.2799 38.5568 15.02050161 28839
e-st@r-II
1 41459U 16025D 16308.96808762 .00002938 00000-0 16487-3 0 9992
2 41459 098.2114 327.4957 0176593 322.2756 036.6191 15.01974936028758
AAUSAT4
1 41460U 16025E 16309.33516823 .00005426 00000-0 30191-3 0 9993
2 41460 98.2014 327.9306 0171054 319.5506 39.3102 15.02472564 28811
MinXSS
1 41474U 98067HU 16309.50634106 .00041383 00000-0 39001-3 0 9999
2 41474 51.6429 71.0246 0003081 307.7543 52.3173 15.66640176 26854
CADRE
1 41475U 98067HV 16309.37353690 .00164433 00000-0 97656-3 0 9993
2 41475 51.6362 67.8198 0005645 319.7256 40.3325 15.76967751 26883
NODES 1
1 41477U 98067HX 16309.52096978 .00031308 00000-0 33560-3 0 9993
2 41477 51.6383 72.5886 0002614 296.4695 63.6031 15.63532663 26749
NODES 2
1 41478U 98067HY 16309.39891011 .00036147 00000-0 38801-3 0 9999
2 41478 51.6383 73.2716 0002522 296.1530 63.9205 15.63423716 26725
LO-87
1 41557U 16033B 16309.53578837 .00002996 00000-0 11864-3 0 9999
2 41557 97.4863 22.9302 0016276 80.4743 43.3361 15.26113134 24156
NuSat2
1 41558U 16033C 16309.54816251 .00003158 00000-0 12542-3 0 9991
2 41558 97.4889 22.9587 0015770 79.2677 33.2440 15.25979797 24150
Lapan A3
1 41603U 16040E 16309.52054998 .00000497 00000-0 26843-4 0 9993
2 41603 97.4955 7.7711 0014494 132.3043 338.2332 15.19186184 20545
Swayam
1 41607U 16040J 16308.89403279 .00003298 00000-0 15709-3 0 9996
2 41607 097.4923 007.1405 0015897 139.0449 221.1983 15.19731165020378
Pratham
1 41783U 16059A 16309.45915344 .00000154 00000-0 39457-4 0 9990
2 41783 98.2010 6.7660 0034312 143.1863 217.1705 14.62775913 5754
OBJECT B
1 41784U 16059B 16309.10775136 .00000342 00000-0 75554-4 0 9993
2 41784 98.2010 6.4394 0032752 144.4353 215.9050 14.63133876 5666
OBJECT C
1 41785U 16059C 16309.51578468 .00000054 00000-0 19877-4 0 9994
2 41785 98.2004 6.8495 0032190 142.3752 217.9707 14.63210091 5725
OBJECT D
1 41786U 16059D 16309.42574817 .00000158 00000-0 37565-4 0 9998
2 41786 98.2278 7.0716 0001147 79.6314 280.5023 14.66300061 5729
OBJECT E
1 41787U 16059E 16309.09907004 .00000191 00000-0 46137-4 0 9992
2 41787 98.1998 6.4497 0030796 144.2395 216.0878 14.63457604 5665
OBJECT F
1 41788U 16059F 16308.88925990 .00000424 00000-0 90429-4 0 9995
2 41788 098.1985 006.2488 0030373 147.3845 212.9304 14.63636964005639
AlSat 1N
1 41789U 16059G 16309.42726808 .00000243 00000-0 55437-4 0 9993
2 41789 98.2009 6.8092 0029272 138.7765 221.5656 14.63970266 5728
ScatSat
1 41790U 16059H 16309.38776479 .00000074 00000-0 30026-4 0 9998
2 41790 98.1000 2.5393 0012321 116.0440 244.2027 14.50106318 5687
OBJECT J
1 41791U 16059J 16309.23960999 .00000136 00000-0 37449-4 0 9990
2 41791 98.2738 6.6325 0042854 150.7578 209.6027 14.60742696 5702
OBJECT K
1 41792U 16059K 16308.80942487 .00000663 00000-0 13497-3 0 9996
2 41792 98.1991 6.2020 0028029 145.6537 214.6483 14.64087991 5624
